Find Starlink 34617

NORAD ID: 65015 Int'l Des: 2025-161 Owner: SPXS Country: US Constellation: starlink operational
LEOCIRCULAR

Live Position

Loading 3D Globe...

About Starlink 34617

Description loading...

Upcoming Passes

Passes for default location (London). Set your location on the main map for personalized predictions.

Altitude History

Loading altitude history...

Two-Line Element Set

1 65015U 25161A 26110.40804762 .00014473 00000-0 49979-3 0 9993
2 65015 53.1590 100.6723 0000928 89.2891 270.8216 15.30201336 40618
Epoch: Apr 20, 2026 • Age: 12 hours

Current Status

Altitude 476.2 km
Velocity 7.63 km/s
Sub-Earth Point -1.18°S, 106.97°E
Launch Date Jul 30, 2025
Age 0.7 years
Type internet

Technical Details

Classification Payload
Mass 575.00 kg
Dry Mass 530.00 kg
Total Mass 575.00 kg
Length 0.30 m
Diameter 4.10 m
Span 29.00 m
Shape Box + pan
Manufacturer SPXS
Bus Type Starlink V2MO
Phase Status In Orbit
Owner/State SPXS/US

Most Searched